Regional Weather Roundup
Issued by NWS

Home | Current Version | Previous Version | Text Only | Print | Product List | Glossary On
Versions: 1 2 3 4 5 6 7 8 9 10 11 12 13 14 15 16 17 18 19 20 21 22 23 24 25 26 27 28 29 30 31 32 33 34 35 36 37 38 39 40 41 42 43 44 45 46 47 48 49 50
465
ASUS43 KLMK 060402
RWRKY
KENTUCKY REGIONAL WEATHER ROUNDUP
NATIONAL WEATHER SERVICE LOUISVILLE KY
1100 PM EST FRI FEB 05 2016

NOTE "FAIR" INDICATES FEW OR NO CLOUDS BELOW 12,000 FEET
WITH NO SIGNIFICANT WEATHER AND/OR OBSTRUCTIONS TO VISIBILITY.

KYZ001>023-026-027-061>063-070>075-060500-
WESTERN AND SOUTH CENTRAL KENTUCKY

CITY           SKY/WX    TMP DP  RH WIND       PRES   REMARKS
PADUCAH        PTCLDY    29  23  78 CALM      30.35S
HENDERSON      CLEAR     34  23  64 N5        30.37S WCI  30
OWENSBORO      CLOUDY    34  25  70 CALM      30.37S
HOPKINSVILLE   PTCLDY    38  21  51 SW2       30.36R
BOWLING GREEN  CLOUDY    37  20  50 CALM      30.37S
GLASGOW        NOT AVBL
$$

KYZ024-025-028>034-038-045-046-053-060500-
NORTH CENTRAL KENTUCKY

CITY           SKY/WX    TMP DP  RH WIND       PRES   REMARKS
LOUISVILLE/SDF CLOUDY    37  19  48 CALM      30.35R
LOUISVILLE/LOU CLOUDY    35  20  54 NW3       30.36R
FORT KNOX      PTCLDY    32  20  59 SW5       30.33S WCI  28
$$

KYZ035>037-039>044-047>052-055>060-089>105-060500-
NORTHEAST KENTUCKY

CITY           SKY/WX    TMP DP  RH WIND       PRES   REMARKS
LEXINGTON      CLOUDY    32  19  58 S8        30.34F WCI  25
COVINGTON      PTCLDY    32  24  72 N10       30.32S WCI  24
FRANKFORT      CLOUDY    32  17  54 S6        30.33F WCI  26
$$

KYZ054-064>069-076>088-106>120-060500-
SOUTHEAST KENTUCKY

CITY           SKY/WX    TMP DP  RH WIND       PRES   REMARKS
JACKSON        CLOUDY    34  12  40 SW5       30.36S WCI  30
LONDON         CLOUDY    30  21  69 CALM      30.37F
SOMERSET       NOT AVBL
MIDDLESBORO    NOT AVBL
MONTICELLO     CLOUDY    27  23  85 NE8       30.39F WCI  19
$$





USA.gov is the U.S. government's official web portal to all federal, state and local government web resources and services.